Total_Precipitation_Accumulation
0.38 0.39 0.37 0.33 0.30 0.30 0.32 0.40 0.45 0.38 0.28 0.19 0.16 0.18 0.25 0.28 0.30 0.33 0.41 0.31 0.29 0.34 0.34 0.38 0.43 0.54 0.57 0.49 0.42 0.35 0.32 0.31 0.32 0.37 0.46 0.57 0.70 0.82
0.34 0.30 0.26 0.23 0.21 0.20 0.22 0.26 0.35 0.42 0.38 0.22 0.17 0.20 0.25 0.24 0.29 0.37 0.38 0.36 0.41 0.64 0.76 0.68 0.62 0.75 0.83 0.71 0.57 0.48 0.42 0.39 0.38 0.40 0.45 0.53 0.63 0.73
0.21 0.19 0.19 0.18 0.19 0.18 0.21 0.25 0.30 0.40 0.47 0.29 0.21 0.23 0.29 0.32 0.36 0.41 0.42 0.45 0.57 0.97 1.23 1.42 1.16 1.04 1.08 0.95 0.77 0.60 0.51 0.47 0.47 0.50 0.54 0.59 0.62 0.67
0.17 0.18 0.17 0.18 0.19 0.20 0.24 0.28 0.32 0.42 0.55 0.48 0.34 0.37 0.41 0.44 0.54 0.57 0.50 0.45 0.53 0.95 1.33 1.67 1.63 1.42 1.43 1.25 1.03 0.77 0.58 0.50 0.48 0.50 0.54 0.58 0.63 0.68
0.17 0.18 0.18 0.22 0.24 0.28 0.36 0.40 0.42 0.46 0.59 0.62 0.49 0.51 0.55 0.62 0.75 0.70 0.59 0.57 0.46 0.73 1.20 1.54 1.74 1.81 1.91 1.76 1.44 1.05 0.74 0.57 0.50 0.49 0.51 0.54 0.56 0.56
0.17 0.21 0.25 0.30 0.35 0.40 0.42 0.43 0.48 0.54 0.60 0.67 0.63 0.65 0.71 0.76 0.81 0.82 0.67 0.59 0.55 0.60 1.04 1.53 1.86 1.93 2.13 2.26 1.97 1.46 1.02 0.72 0.55 0.48 0.43 0.40 0.39 0.39
0.17 0.20 0.25 0.33 0.40 0.39 0.37 0.39 0.50 0.62 0.65 0.73 0.74 0.71 0.69 0.78 0.81 0.71 0.62 0.52 0.47 0.53 0.73 1.18 1.86 2.18 2.24 2.33 2.25 1.76 1.28 0.92 0.68 0.53 0.44 0.38 0.35 0.35
0.21 0.22 0.20 0.23 0.22 0.23 0.29 0.35 0.46 0.64 0.85 0.96 0.87 0.76 0.63 0.64 0.67 0.63 0.63 0.58 0.49 0.39 0.45 0.75 1.38 2.05 2.31 2.38 2.33 1.77 1.27 0.95 0.76 0.65 0.56 0.48 0.42 0.40
0.26 0.24 0.19 0.15 0.18 0.22 0.26 0.31 0.43 0.59 0.81 1.07 1.08 0.81 0.73 0.67 0.70 0.68 0.68 0.71 0.62 0.43 0.47 0.67 1.10 1.77 2.09 2.20 2.10 1.54 1.13 0.90 0.78 0.69 0.62 0.56 0.49 0.45
0.22 0.23 0.24 0.24 0.21 0.24 0.25 0.31 0.45 0.61 0.73 0.80 1.04 0.87 0.69 0.66 0.68 0.67 0.69 0.66 0.54 0.43 0.49 0.67 1.01 1.51 1.65 1.77 1.77 1.39 1.07 0.89 0.78 0.69 0.63 0.59 0.54 0.53
0.17 0.18 0.16 0.20 0.21 0.32 0.41 0.53 0.66 0.83 0.85 0.97 1.12 1.08 0.96 0.87 0.73 0.67 0.70 0.64 0.54 0.45 0.49 0.62 0.86 1.09 1.24 1.39 1.39 1.27 1.07 0.91 0.80 0.72 0.65 0.60 0.54 0.55
0.15 0.20 0.17 0.17 0.25 0.41 0.57 0.73 0.85 0.97 0.91 1.00 1.22 1.28 1.13 1.09 1.06 0.89 0.77 0.66 0.58 0.56 0.50 0.55 0.70 0.78 1.03 1.14 1.12 1.07 1.04 1.05 0.96 0.84 0.74 0.62 0.50 0.47
0.15 0.25 0.30 0.25 0.32 0.52 0.71 0.80 0.97 1.05 1.02 1.01 0.99 0.99 1.05 1.04 0.99 0.94 0.79 0.63 0.54 0.53 0.48 0.54 0.67 0.70 0.82 0.95 1.03 1.09 1.05 1.05 0.97 0.98 0.96 0.82 0.65 0.55
0.25 0.31 0.36 0.35 0.41 0.61 0.77 0.96 1.16 1.25 1.14 1.06 0.87 0.77 0.73 0.74 0.76 0.71 0.64 0.54 0.48 0.46 0.45 0.52 0.68 0.76 0.72 0.72 0.98 1.13 1.16 1.18 1.09 1.03 1.01 0.96 0.84 0.78
0.26 0.35 0.39 0.42 0.57 0.86 1.06 1.21 1.33 1.34 1.24 1.03 0.81 0.73 0.65 0.59 0.59 0.62 0.61 0.52 0.46 0.40 0.37 0.44 0.57 0.68 0.68 0.72 0.94 1.06 1.17 1.37 1.31 1.20 1.06 0.96 0.91 0.85
0.26 0.40 0.51 0.58 0.74 1.02 1.23 1.39 1.42 1.30 1.09 0.94 0.81 0.76 0.67 0.60 0.59 0.52 0.49 0.44 0.43 0.45 0.40 0.39 0.48 0.57 0.63 0.66 0.78 0.95 1.06 1.41 1.44 1.21 1.07 1.03 0.96 0.86
0.25 0.40 0.54 0.66 0.84 1.04 1.20 1.29 1.28 1.18 1.04 0.83 0.71 0.72 0.72 0.65 0.61 0.51 0.43 0.36 0.37 0.40 0.41 0.41 0.44 0.47 0.48 0.52 0.67 0.83 0.95 1.16 1.24 1.05 0.86 0.90 0.97 0.88
0.30 0.43 0.54 0.66 0.84 1.02 1.13 1.14 1.07 0.99 0.87 0.73 0.65 0.62 0.63 0.61 0.58 0.50 0.40 0.35 0.35 0.35 0.34 0.34 0.35 0.35 0.33 0.42 0.61 0.71 0.77 0.94 0.97 0.80 0.61 0.64 0.90 0.96
0.31 0.47 0.59 0.70 0.85 0.98 1.04 1.03 1.00 0.90 0.79 0.70 0.64 0.58 0.53 0.50 0.46 0.40 0.35 0.33 0.31 0.32 0.29 0.25 0.23 0.25 0.27 0.45 0.66 0.73 0.71 0.74 0.69 0.62 0.56 0.57 0.79 0.95
0.38 0.53 0.64 0.70 0.78 0.84 0.90 0.95 0.96 0.87 0.76 0.68 0.65 0.59 0.52 0.44 0.36 0.31 0.28 0.25 0.25 0.27 0.26 0.22 0.18 0.20 0.25 0.36 0.60 0.73 0.66 0.55 0.45 0.46 0.49 0.54 0.69 0.79
0.44 0.55 0.62 0.67 0.69 0.69 0.74 0.79 0.82 0.79 0.71 0.65 0.62 0.59 0.52 0.43 0.33 0.26 0.21 0.14 0.16 0.20 0.22 0.21 0.17 0.14 0.16 0.22 0.36 0.51 0.53 0.53 0.42 0.35 0.33 0.34 0.38 0.37
0.43 0.50 0.55 0.59 0.57 0.57 0.58 0.61 0.64 0.64 0.61 0.58 0.55 0.53 0.45 0.34 0.28 0.22 0.19 0.17 0.17 0.16 0.14 0.12 0.11 0.09 0.11 0.18 0.29 0.38 0.38 0.34 0.30 0.28 0.27 0.24 0.21 0.30
0.40 0.42 0.44 0.46 0.45 0.44 0.44 0.45 0.49 0.53 0.54 0.55 0.52 0.46 0.37 0.29 0.23 0.18 0.14 0.12 0.11 0.10 0.10 0.09 0.07 0.06 0.07 0.11 0.17 0.22 0.22 0.22 0.19 0.19 0.25 0.31 0.31 0.38